ECMWFNIL_850_temp_057.txt.gz
Temp
6 6 6 6 6 6 7 7 8 8 8 8 9 9 8 8 8 8 7 7 7 7 7 7 6 6 6 6 6 6 5 5 5 5 5 4 4 3 3 3 2 2
6 6 6 6 6 6 7 7 8 8 8 8 8 8 8 8 8 8 7 7 7 7 6 6 6 6 6 6 5 5 5 5 5 5 4 4 3 3 3 2 2 2
6 6 6 5 5 6 7 7 8 8 8 8 8 8 8 8 8 7 7 7 7 6 6 6 6 6 5 5 5 5 5 5 4 4 4 3 3 3 2 2 1 1
5 6 5 5 5 6 7 7 7 7 8 8 8 8 8 7 7 7 7 6 6 6 6 6 5 5 5 5 5 5 4 4 4 3 3 3 3 2 2 1 1 1
5 5 5 5 5 6 7 7 7 7 7 7 7 7 7 7 7 7 7 6 6 6 6 5 5 5 5 5 4 4 4 4 3 3 3 2 2 2 1 1 0 0
5 5 5 5 6 6 7 7 7 7 7 7 7 7 7 7 7 6 6 6 6 5 5 5 5 5 5 4 4 4 3 3 3 2 2 2 2 1 1 1 0 -0
5 6 6 5 6 6 7 7 7 7 7 7 7 7 7 6 6 6 6 6 6 5 5 5 5 4 4 4 4 3 3 3 2 2 2 2 1 1 1 0 -0 -1
5 6 6 6 6 6 7 7 7 7 7 7 6 6 6 6 6 6 6 5 5 5 5 4 4 4 4 4 3 3 3 2 2 2 1 1 1 1 0 -0 -0 -1
5 6 6 6 6 6 7 7 7 6 6 6 6 6 6 5 5 5 5 5 5 4 4 4 4 4 3 3 3 2 2 2 1 1 1 1 0 0 -0 -0 -1 -1
5 6 6 6 6 6 6 6 6 6 6 6 6 5 5 5 5 5 5 5 4 4 4 4 4 3 3 3 2 2 2 1 1 1 1 0 -0 -0 -0 -1 -1 -1
5 6 6 6 6 6 6 6 6 6 6 6 5 5 5 5 5 4 4 4 4 4 4 3 3 3 3 2 2 2 1 1 1 1 0 0 -0 -0 -1 -1 -1 -1
5 6 6 6 6 6 6 6 6 6 5 5 5 5 5 4 5 4 4 4 4 4 3 3 3 2 2 2 1 1 1 1 1 0 0 -0 -0 -1 -1 -1 -1 -2
5 5 6 6 5 6 6 6 6 5 5 5 5 5 4 4 4 4 4 4 3 3 3 2 2 2 2 1 1 1 1 1 0 0 -0 -0 -1 -1 -1 -1 -2 -2
5 5 5 6 5 5 5 5 5 5 5 5 5 4 4 4 4 4 4 4 3 3 2 2 2 2 2 1 1 1 1 0 0 -0 -0 -1 -1 -1 -1 -2 -2 -2
5 5 5 5 5 5 5 5 5 5 5 4 4 4 4 4 4 3 3 3 3 3 2 2 2 2 1 1 1 1 0 -0 -0 -0 -1 -1 -1 -1 -1 -2 -2 -2
5 5 5 5 5 5 5 5 5 5 4 4 4 4 4 4 3 3 3 3 3 2 2 2 2 1 1 1 0 -0 -0 -1 -1 -1 -1 -1 -1 -1 -2 -2 -2 -2
5 4 4 5 5 5 5 5 5 4 4 4 4 4 4 3 3 3 3 2 2 2 2 2 2 1 1 0 -0 -0 -1 -1 -1 -1 -1 -1 -2 -2 -2 -2 -2 -2
4 4 4 4 5 5 5 5 4 4 4 4 4 4 3 3 3 3 2 2 2 2 1 1 1 1 0 -0 -1 -1 -1 -1 -1 -1 -1 -2 -2 -2 -2 -2 -2 -2
4 4 4 4 4 5 5 4 4 4 4 4 4 3 3 3 2 2 2 2 2 1 1 1 1 0 -0 -1 -1 -1 -2 -2 -2 -2 -2 -2 -2 -2 -2 -2 -2 -3
4 4 4 4 4 4 4 4 4 4 4 4 4 3 3 2 2 2 2 2 1 1 1 1 0 -0 -1 -1 -2 -2 -2 -2 -2 -2 -2 -2 -3 -3 -3 -3 -3 -3
4 4 4 4 4 4 4 4 4 4 4 4 3 3 2 2 2 2 2 1 1 1 1 0 -0 -1 -1 -2 -2 -2 -2 -2 -2 -2 -2 -2 -3 -3 -3 -3 -3 -3
3 4 4 3 3 3 4 4 4 4 4 3 3 3 2 2 2 1 1 1 1 1 0 -0 -1 -1 -1 -2 -2 -2 -2 -2 -2 -2 -2 -3 -3 -3 -3 -3 -3 -3
3 3 3 3 3 3 3 3 3 3 3 3 3 2 2 2 2 1 1 1 1 0 -0 -1 -1 -1 -2 -2 -2 -2 -2 -2 -2 -2 -2 -3 -3 -3 -3 -3 -3 -4
3 3 3 3 3 3 3 2 2 2 3 2 2 2 2 2 2 1 1 1 0 -0 -1 -1 -1 -1 -1 -2 -2 -2 -2 -2 -2 -2 -3 -3 -3 -3 -3 -3 -3 -4
3 2 2 2 2 2 2 2 2 2 2 2 2 2 2 1 1 1 0 0 -0 -1 -1 -1 -1 -1 -2 -2 -2 -2 -3 -3 -3 -3 -3 -3 -3 -3 -3 -3 -3 -4
2 2 2 1 1 1 1 1 1 1 1 1 1 1 1 1 0 0 -0 -1 -1 -1 -1 -1 -1 -1 -2 -2 -2 -3 -3 -3 -3 -3 -3 -3 -3 -3 -3 -3 -4 -4

ECMWFNIL_850_temp_060.txt.gz
Temp
8 7 7 7 7 7 7 7 7 6 7 7 7 8 8 8 8 8 8 8 8 8 8 8 8 8 7 7 7 7 7 7 7 6 6 6 6 6 6 6 5 5
7 7 7 7 7 7 7 7 7 6 7 7 8 8 8 8 8 8 8 8 8 7 7 7 7 7 7 7 7 6 6 6 6 6 6 6 6 6 5 5 5 5
7 7 7 7 7 7 7 6 6 6 7 7 7 8 8 8 8 8 8 7 7 7 7 7 7 7 6 6 6 6 6 6 6 6 6 5 5 5 5 5 4 4
6 7 7 7 7 6 6 6 6 6 6 7 7 7 7 8 7 8 7 7 7 7 7 7 6 6 6 6 6 6 5 5 5 5 5 5 5 4 4 4 4 3
6 7 7 6 6 6 5 5 6 6 6 6 7 7 7 7 7 7 7 7 7 6 6 6 6 6 6 5 5 5 5 5 5 5 5 5 4 4 3 3 3 3
6 6 6 6 6 5 5 5 5 5 6 6 7 7 7 7 7 7 7 7 6 6 6 6 6 6 5 5 5 5 5 4 4 5 4 4 4 3 3 2 2 2
6 6 6 6 5 5 5 5 5 5 5 6 7 7 7 7 7 7 7 7 6 6 6 6 6 5 5 5 5 4 4 4 4 4 4 4 4 3 2 2 1 1
5 5 5 5 5 5 5 5 5 4 5 6 6 7 7 7 7 7 6 6 6 6 6 5 5 5 5 5 4 4 4 4 4 4 4 3 3 3 2 2 1 1
6 5 5 5 5 5 5 5 4 4 5 6 6 6 6 6 6 6 6 6 6 5 5 5 5 4 4 4 4 4 3 3 3 3 3 3 3 2 2 1 1 0
6 5 5 5 5 4 4 5 4 4 5 5 6 6 6 6 6 6 6 5 5 5 5 4 4 4 4 4 3 3 3 3 3 3 3 2 2 2 1 1 1 0
5 6 5 5 5 4 5 5 4 4 5 5 6 6 6 5 5 5 5 5 5 5 4 4 4 4 3 3 3 3 2 2 2 2 2 2 1 1 1 1 0 -0
5 5 5 5 5 5 5 5 4 4 5 5 5 5 5 5 5 5 5 5 5 4 4 4 3 3 3 3 2 2 2 2 2 2 2 1 1 1 1 0 0 -0
5 5 5 5 5 5 4 4 4 4 5 5 5 5 5 5 5 5 5 5 4 4 3 3 3 3 2 2 2 2 2 2 2 2 1 1 0 0 0 0 -0 -0
4 5 5 5 4 4 4 4 4 4 4 5 5 5 5 5 5 5 5 4 4 3 3 3 2 2 2 2 2 1 1 1 1 1 1 0 -0 -0 -0 -0 -0 -1
4 4 5 4 4 4 4 4 4 4 4 5 5 5 5 4 4 4 4 4 3 3 3 2 2 2 2 2 1 1 1 1 1 1 0 -0 -1 -1 -1 -1 -1 -1
3 4 4 4 4 4 4 4 4 4 4 4 4 4 4 4 4 4 4 4 3 3 3 2 2 2 2 1 1 1 1 1 0 0 -0 -1 -1 -2 -1 -1 -1 -1
3 4 4 4 4 4 3 3 3 4 4 4 4 4 4 4 4 4 4 3 3 3 3 2 2 2 1 1 0 0 0 0 0 -0 -1 -1 -2 -2 -2 -2 -2 -2
3 3 4 4 4 4 3 3 3 4 4 4 4 4 4 4 4 4 3 3 3 3 2 2 2 1 1 1 0 0 0 -0 -0 -1 -1 -2 -2 -2 -3 -3 -3 -2
3 3 3 4 4 4 4 3 3 3 4 4 4 4 4 4 3 3 3 3 3 2 2 2 1 1 0 0 -0 -0 -0 -0 -1 -1 -2 -2 -2 -3 -3 -3 -3 -2
3 3 3 4 4 4 4 4 3 3 3 4 4 4 4 3 3 3 3 3 2 2 2 1 1 0 0 -0 -0 -1 -1 -1 -1 -2 -2 -2 -2 -3 -3 -3 -3 -3
3 3 3 4 4 4 3 3 3 3 3 3 3 3 3 3 3 3 3 3 2 2 1 1 0 0 -0 -0 -1 -1 -1 -1 -2 -2 -2 -2 -2 -3 -3 -3 -3 -3
2 3 3 3 3 3 3 3 2 2 2 3 3 3 3 3 3 3 3 2 2 1 1 0 0 -0 -1 -1 -1 -1 -2 -2 -2 -2 -3 -3 -2 -2 -3 -3 -3 -3
2 2 3 3 3 2 2 2 2 2 2 2 2 2 2 2 2 2 2 2 1 0 -0 -0 -0 -1 -1 -1 -1 -2 -2 -2 -3 -3 -3 -3 -2 -3 -3 -3 -3 -3
2 2 2 2 2 2 2 1 1 1 1 1 1 1 1 1 2 1 1 0 -0 -1 -1 -1 -1 -1 -1 -1 -2 -2 -3 -3 -3 -3 -3 -3 -3 -3 -3 -3 -3 -3
2 2 2 2 1 1 1 1 1 1 1 0 -0 -0 -0 0 0 0 -0 -1 -1 -2 -2 -1 -1 -1 -1 -2 -2 -3 -3 -3 -3 -3 -3 -3 -3 -3 -3 -3 -3 -3
2 1 1 1 1 1 0 0 0 -0 -0 -0 -1 -1 -1 -1 -1 -1 -1 -2 -2 -2 -2 -2 -1 -1 -2 -2 -2 -3 -3 -3 -3 -3 -3 -3 -3 -3 -3 -3 -3 -3

ECMWFNIL_850_temp_063.txt.gz
Temp
7 7 8 8 8 8 8 8 8 8 7 7 7 6 6 6 7 7 6 6 7 7 7 8 8 8 8 8 8 8 7 7 7 7 7 7 6 6 6 6 6 5
7 7 7 8 8 8 8 8 8 7 7 7 7 6 6 6 6 6 6 6 7 7 7 7 8 8 8 8 7 7 7 7 7 7 6 6 6 6 6 5 5 5
7 7 7 7 8 8 8 7 7 7 7 7 7 6 6 6 6 6 6 6 7 7 7 7 7 7 7 7 7 7 7 7 6 6 6 6 6 5 5 5 5 5
7 7 7 8 8 8 7 7 7 7 7 7 7 6 6 7 6 6 6 7 7 7 7 7 7 7 7 7 7 6 6 6 6 6 6 5 5 5 5 5 4 4
7 7 7 7 7 7 7 7 7 7 7 7 6 6 6 6 6 6 7 7 7 7 7 7 7 7 6 6 6 6 6 6 5 5 5 5 5 5 4 4 4 4
6 6 7 7 7 7 6 7 7 7 7 7 6 6 6 6 6 7 7 6 6 6 6 6 6 6 6 6 6 6 5 5 5 5 5 4 4 4 4 4 4 4
6 6 7 7 6 6 6 7 7 7 7 6 6 6 6 6 6 6 6 6 6 6 6 6 6 6 6 6 6 5 5 5 5 4 4 4 4 4 4 3 3 3
6 6 6 7 6 6 6 6 7 6 6 6 6 6 6 6 6 6 6 6 6 6 6 6 6 6 6 6 5 5 5 5 4 4 4 4 4 3 3 3 3 3
6 6 6 6 6 6 6 6 6 6 5 5 5 5 5 5 6 6 6 6 6 6 6 6 6 6 5 5 5 5 4 4 4 4 4 3 3 3 3 2 2 2
6 6 6 6 6 6 6 6 6 6 5 5 5 5 5 5 6 6 6 6 6 6 6 6 5 5 5 5 5 4 4 4 4 3 3 3 3 2 2 2 2 2
6 6 6 6 6 6 6 6 6 5 5 5 4 5 4 4 5 6 6 6 6 6 5 5 5 5 5 5 4 4 4 3 3 3 2 2 2 2 1 1 1 1
5 5 6 6 5 5 6 5 5 5 5 4 4 5 4 4 5 5 5 5 5 5 5 5 5 4 4 4 4 4 3 3 2 2 2 2 1 1 1 0 0 -0
5 5 5 6 5 5 5 5 5 5 5 4 4 4 4 4 4 5 5 5 5 5 5 4 4 4 4 4 3 3 3 2 2 2 2 1 1 0 0 -0 -1 -1
4 4 5 5 5 5 5 5 5 5 4 4 4 4 4 3 4 4 4 4 4 4 4 4 4 4 3 3 3 3 2 2 1 1 1 0 -0 -0 -1 -1 -1 -1
4 4 4 5 5 4 4 5 5 4 4 4 4 4 3 3 4 4 4 4 4 4 4 4 3 3 3 3 3 2 2 1 1 1 0 -0 -1 -1 -1 -1 -1 -1
3 3 4 4 4 4 4 4 5 4 4 4 4 3 3 3 3 4 4 4 4 4 4 4 3 3 3 2 2 1 1 0 0 -0 -1 -1 -1 -1 -1 -2 -2 -2
3 3 3 3 3 3 4 4 4 4 4 4 4 3 3 3 3 3 4 4 4 4 4 3 3 3 2 2 1 1 0 -0 -0 -1 -1 -2 -2 -2 -2 -2 -2 -2
3 3 3 3 2 3 3 4 4 4 4 4 3 3 3 3 3 3 4 4 4 4 4 3 3 3 2 2 1 0 -0 -1 -1 -1 -2 -2 -2 -2 -2 -2 -2 -2
3 2 2 2 2 2 3 3 4 4 4 4 3 3 3 3 3 3 3 4 4 3 3 3 3 2 2 1 1 0 -0 -1 -1 -1 -2 -2 -2 -2 -2 -2 -2 -2
3 2 2 2 2 2 3 3 3 3 3 3 3 3 3 3 3 3 3 3 3 3 3 3 3 2 2 1 0 -0 -1 -1 -2 -2 -3 -3 -2 -2 -2 -3 -3 -3
2 2 2 2 2 3 3 3 3 3 3 3 3 2 2 2 2 3 3 3 3 3 3 3 2 2 1 1 0 -1 -1 -2 -2 -3 -3 -3 -3 -3 -3 -3 -3 -3
2 2 2 2 2 2 3 3 3 3 3 2 2 1 1 2 2 2 2 3 3 3 2 2 2 1 1 0 -1 -2 -2 -2 -2 -3 -3 -3 -3 -3 -3 -3 -3 -3
2 2 1 1 2 2 3 3 3 3 2 2 2 1 1 1 1 1 1 1 2 2 2 2 1 1 -0 -1 -2 -2 -2 -2 -3 -3 -3 -3 -3 -4 -4 -4 -3 -3
2 1 1 1 1 2 2 2 2 2 2 1 1 1 0 0 -0 -1 -1 -0 -0 0 0 0 0 -0 -1 -2 -3 -3 -3 -2 -3 -3 -4 -4 -4 -4 -4 -4 -4 -3
1 1 1 1 1 1 1 1 1 1 1 0 -0 -0 -1 -1 -1 -2 -2 -2 -2 -2 -2 -2 -2 -2 -3 -3 -3 -3 -3 -3 -3 -4 -4 -4 -4 -4 -4 -4 -4 -3
1 0 0 0 0 0 0 0 0 -0 -0 -1 -1 -1 -1 -2 -2 -2 -3 -3 -3 -3 -3 -3 -3 -3 -3 -3 -3 -3 -3 -3 -4 -4 -4 -4 -4 -4 -4 -4 -3 -3

ECMWFNIL_850_temp_069.txt.gz
Temp
12 12 11 11 11 10 9 9 9 9 9 9 9 10 9 9 10 9 9 9 9 8 8 8 8 8 8 8 8 8 8 8 8 8 8 8 7 7 7 7 7 6
13 12 11 11 11 10 9 8 8 8 9 9 9 9 9 9 9 9 9 9 8 8 8 7 7 7 7 7 8 8 8 8 7 7 7 7 7 7 7 7 6 6
13 12 11 11 10 9 9 8 7 7 8 9 9 9 8 8 8 9 9 9 8 8 7 7 7 7 7 7 7 8 7 7 7 7 7 7 7 6 6 6 6 5
13 12 12 11 10 9 8 8 7 7 8 8 8 8 8 8 8 8 8 8 8 8 7 7 7 7 7 7 7 7 7 7 7 7 6 6 6 6 6 6 5 5
14 13 13 12 11 10 9 7 7 7 7 8 8 8 8 8 8 8 8 8 8 7 7 7 7 7 7 7 7 7 7 7 6 6 6 6 6 6 6 6 5 5
14 14 13 12 11 10 9 8 7 7 7 7 7 8 8 8 8 8 8 8 7 7 7 7 7 6 6 7 7 7 7 6 6 6 6 6 6 6 6 5 5 5
14 14 13 12 11 11 10 8 7 6 7 7 7 8 8 7 7 7 7 7 7 7 7 7 7 6 6 7 7 7 6 6 6 6 6 6 6 6 5 5 5 5
14 14 13 12 11 11 10 9 7 6 6 6 7 7 7 7 7 7 7 7 7 7 7 6 6 6 6 7 7 6 6 6 6 6 6 6 6 5 5 5 5 5
14 13 12 11 11 10 10 9 8 6 6 6 6 7 7 7 7 7 7 7 7 7 6 6 6 6 6 6 7 6 6 6 6 6 6 6 5 5 5 5 5 5
14 13 12 11 11 10 10 9 7 6 5 5 6 6 7 7 6 7 7 6 6 6 6 6 6 6 6 6 6 6 6 6 6 6 6 6 5 5 5 5 5 4
14 14 12 11 11 10 9 8 7 6 5 5 5 6 6 6 6 6 6 6 6 6 6 6 6 6 6 6 6 6 6 6 6 6 6 5 5 5 5 4 4 4
15 14 13 12 11 10 9 8 7 6 5 5 5 5 6 6 6 6 6 6 5 5 6 6 6 6 6 5 5 5 5 5 6 5 5 5 5 4 4 4 3 3
14 14 13 12 11 10 9 8 8 7 6 5 5 5 5 6 6 6 6 6 5 6 6 6 6 6 5 5 5 5 5 5 5 5 5 5 4 4 3 3 3 2
14 14 13 12 11 10 9 8 8 7 6 5 5 5 6 6 6 6 5 5 5 6 6 6 5 5 5 5 5 5 4 4 5 5 5 4 3 3 3 3 2 1
14 13 13 11 10 9 9 8 7 6 5 4 4 5 6 6 6 5 5 5 5 5 5 5 5 5 5 4 5 4 4 4 5 5 4 4 3 3 3 2 1 1
14 13 12 11 10 9 8 7 6 5 4 4 4 5 5 5 5 5 5 5 5 5 5 5 5 4 4 4 4 4 4 4 4 4 4 4 3 3 2 1 1 1
14 13 12 11 10 8 8 7 6 5 4 4 4 5 5 5 5 5 5 5 5 5 4 4 4 4 4 4 3 3 3 4 4 4 4 3 3 2 2 1 1 0
14 13 12 11 10 8 7 6 5 4 3 4 4 4 5 5 5 5 4 5 5 4 4 4 4 4 4 3 2 2 2 3 3 4 3 3 2 2 1 1 0 0
14 13 11 10 9 8 7 6 5 4 3 4 4 4 4 4 4 4 4 4 4 4 4 4 4 4 3 2 2 1 2 2 3 3 2 2 2 1 1 1 0 0
13 12 11 9 9 7 6 5 4 4 3 4 4 4 4 4 4 4 4 4 4 4 4 3 3 3 2 2 1 1 1 2 2 2 2 2 1 1 1 0 -0 -0
13 11 10 9 8 7 5 4 3 3 3 3 4 4 4 3 3 3 3 3 3 3 3 3 3 2 2 1 1 0 1 1 1 1 1 1 1 0 -0 -1 -1 -1
12 11 9 8 7 6 4 3 2 2 2 3 3 3 3 3 2 2 3 3 3 2 2 2 2 2 1 0 -0 -1 -0 0 0 0 0 -0 -0 -1 -1 -1 -1 -1
11 10 8 7 6 5 4 2 2 2 2 2 3 3 2 2 2 2 2 2 2 2 1 1 1 1 0 -1 -1 -2 -1 -1 -0 -0 -1 -1 -1 -1 -1 -2 -2 -2
10 8 7 6 5 4 3 2 1 1 2 2 2 2 2 2 2 2 2 2 1 1 0 0 0 -0 -1 -1 -2 -2 -2 -1 -1 -1 -1 -1 -2 -2 -2 -2 -2 -2
8 7 6 5 4 3 2 2 1 1 2 2 2 2 2 2 1 1 1 0 -0 -1 -1 -1 -1 -1 -1 -2 -2 -3 -2 -2 -2 -2 -2 -2 -2 -2 -2 -3 -2 -2
6 5 4 4 3 2 2 1 1 1 1 1 1 1 1 1 0 -0 -1 -1 -1 -1 -1 -1 -1 -1 -2 -2 -3 -3 -3 -3 -2 -2 -2 -2 -2 -3 -3 -3 -2 -2

ECMWFNIL_850_temp_072.txt.gz
Temp
15 15 15 14 14 14 14 14 14 14 14 13 13 12 11 10 10 9 10 10 10 10 10 9 9 9 9 9 9 9 8 8 8 8 8 8 8 7 6 6 6 6
15 15 14 14 14 14 14 14 14 14 14 13 13 12 10 9 9 9 9 10 10 10 9 9 9 9 8 8 8 8 8 8 8 8 8 7 7 6 6 6 6 5
16 15 15 15 14 14 14 13 13 13 13 13 12 11 10 9 9 9 9 9 10 9 9 9 9 9 8 8 8 8 7 7 8 8 7 7 6 6 6 6 5 5
16 16 15 15 14 14 13 13 13 12 12 12 11 10 9 9 9 9 9 9 9 9 8 8 9 9 8 8 7 7 7 7 7 7 7 7 6 6 5 5 6 5
16 16 16 15 14 14 13 13 12 12 11 10 10 9 8 8 9 9 9 8 8 8 8 8 8 8 8 8 7 7 7 7 7 7 7 6 6 6 5 5 5 5
17 16 16 16 15 14 14 13 12 12 11 10 9 8 7 7 8 8 8 8 8 8 8 8 8 8 8 7 7 7 7 7 7 7 7 6 6 6 5 5 5 5
17 16 16 16 16 15 14 14 13 12 11 9 8 8 7 7 7 8 8 8 8 8 8 8 8 8 7 7 7 7 7 6 6 6 6 6 6 6 6 5 5 4
17 16 16 15 15 15 14 14 13 13 11 10 8 7 7 6 7 7 8 8 8 8 8 8 8 7 7 7 7 7 6 6 6 6 6 6 6 5 5 5 4 4
17 17 16 16 15 15 15 14 13 13 12 10 9 7 6 6 7 7 7 7 7 7 7 7 7 7 7 7 7 7 6 6 6 6 6 5 5 5 5 5 4 4
17 16 16 16 16 15 15 14 13 13 12 11 9 8 6 6 6 6 6 7 7 7 7 7 7 6 6 7 7 6 6 6 6 6 5 5 5 5 5 4 4 3
16 16 16 16 16 15 14 14 14 13 12 11 10 8 6 5 6 6 6 6 7 7 7 7 6 6 6 7 7 6 6 6 5 5 5 4 4 4 4 4 4 3
16 16 16 16 16 15 14 13 13 13 12 11 10 9 7 5 5 5 6 6 6 6 6 6 6 6 6 6 6 6 6 6 5 5 4 3 3 3 4 4 3 3
16 16 16 15 15 14 13 13 13 12 11 10 9 8 7 5 4 4 5 5 6 6 6 6 6 6 6 6 6 6 6 6 5 4 4 3 2 3 3 3 3 3
16 15 15 15 14 13 13 12 12 12 11 10 9 8 6 5 4 4 4 5 5 5 6 6 6 6 6 5 6 6 6 6 5 4 3 3 2 2 2 2 2 2
15 15 15 14 13 13 13 12 12 11 11 9 8 7 6 4 3 4 4 5 5 5 6 6 5 5 5 5 5 5 5 5 5 4 3 2 2 2 2 2 2 2
15 14 14 14 13 13 12 11 11 11 10 9 8 7 6 5 3 3 4 4 5 5 5 5 5 5 5 5 5 5 5 4 3 3 2 2 2 2 2 1 1 1
15 14 14 14 13 12 11 11 10 10 9 8 8 6 5 4 3 3 4 5 5 5 5 5 5 5 5 5 5 4 4 3 3 2 1 1 1 2 2 1 1 1
14 14 14 13 12 12 11 10 10 9 8 8 7 5 4 4 3 4 4 5 5 5 5 5 5 5 5 5 4 4 3 3 2 1 1 1 1 1 2 2 1 1
14 14 13 13 12 11 10 9 9 8 8 7 6 4 3 3 3 4 4 4 4 4 4 4 4 5 5 4 4 3 3 2 1 0 0 1 1 1 1 2 1 1
13 13 13 12 12 10 9 9 8 8 7 6 5 4 3 3 3 3 4 4 4 4 4 4 4 4 4 4 3 3 2 1 0 -1 -0 0 1 1 1 1 1 1
13 12 12 12 11 10 9 8 7 7 6 5 4 3 2 2 3 3 4 4 4 4 4 4 4 4 4 3 2 2 1 0 -1 -1 -1 -0 0 0 0 1 1 1
12 11 11 11 11 10 8 7 7 6 5 4 3 2 2 2 3 3 4 4 3 3 3 3 3 3 3 3 2 1 1 -0 -1 -1 -1 -1 -0 -0 -0 -0 -0 -1
11 10 10 10 10 8 7 7 6 5 4 3 2 2 2 2 3 3 3 3 3 3 3 3 3 2 2 2 1 1 1 -1 -2 -2 -1 -1 -1 -1 -1 -1 -1 -2
10 9 9 9 8 7 6 6 5 4 3 2 2 1 2 2 3 3 3 3 2 2 2 2 2 2 1 1 0 0 -0 -1 -2 -2 -2 -2 -2 -2 -2 -2 -2 -2
9 9 9 8 7 6 5 5 4 3 2 1 1 1 2 2 2 2 2 2 2 2 2 2 1 1 1 0 0 -0 -1 -1 -2 -3 -3 -3 -3 -3 -3 -3 -3 -3
9 8 8 7 6 5 5 4 3 2 1 1 1 1 1 2 2 2 1 1 1 1 1 1 1 1 0 0 0 -0 -1 -2 -3 -4 -4 -4 -3 -3 -3 -3 -3 -3

ECMWFNIL_850_temp_075.txt.gz
Temp
16 16 16 15 15 15 14 14 14 14 14 14 13 13 12 12 12 11 11 10 8 9 9 9 9 9 9 10 10 10 10 9 9 9 9 8 8 8 8 8 8 8
16 16 16 16 15 15 14 14 14 14 14 14 14 13 12 12 11 11 10 9 8 9 9 9 9 10 10 10 10 10 9 9 9 9 8 8 8 8 8 8 7 7
17 17 17 16 16 15 15 14 14 14 14 14 14 14 13 12 11 11 10 9 8 9 9 8 9 10 10 10 10 10 9 9 9 9 9 9 8 8 7 7 7 7
17 17 17 17 16 16 15 14 14 14 14 14 14 14 13 12 11 10 10 9 8 8 9 8 9 9 10 9 9 9 9 9 9 9 8 8 8 8 7 7 7 7
18 17 17 17 17 16 16 15 15 14 13 14 14 13 13 12 11 10 9 8 8 8 8 8 9 9 9 9 9 9 9 9 8 8 8 8 8 8 7 7 6 6
18 18 18 17 17 17 17 16 16 14 14 13 13 13 13 12 11 10 9 7 7 8 8 8 8 8 8 8 8 8 8 8 8 8 8 7 7 7 7 7 6 6
18 18 18 17 17 17 17 16 16 15 14 13 13 13 13 12 11 10 8 7 7 7 7 8 8 8 8 8 8 8 8 8 8 8 8 7 7 7 7 6 6 6
18 18 17 17 17 17 17 16 15 15 14 13 13 13 13 12 11 9 7 6 6 6 7 8 8 8 8 8 8 7 7 8 8 8 7 7 7 7 7 6 6 6
17 17 17 17 17 17 16 16 15 14 14 13 13 13 12 12 11 10 7 6 6 6 7 7 8 8 7 7 7 7 7 7 7 7 7 7 7 6 6 6 6 5
17 17 17 17 17 17 16 16 15 14 14 13 13 12 12 11 11 10 8 6 6 6 6 7 7 7 7 7 7 7 7 7 7 7 7 6 6 6 6 6 6 5
17 17 17 17 17 16 16 15 15 14 14 13 13 12 12 11 10 9 8 6 6 6 6 6 7 7 7 7 7 7 7 7 6 6 6 6 6 6 6 6 5 4
17 16 16 16 16 16 16 15 14 14 13 13 12 12 11 11 10 9 8 6 5 5 6 6 6 6 6 6 6 7 7 6 6 6 6 6 5 5 5 5 5 4
16 16 16 16 16 16 15 15 14 13 13 12 12 11 11 11 10 9 8 6 5 5 5 5 5 6 6 6 6 6 6 6 6 6 6 6 5 5 5 5 4 3
16 16 16 16 16 15 15 15 14 13 12 12 11 11 11 10 9 8 7 6 4 4 5 5 5 5 5 5 6 6 6 6 6 6 6 5 5 5 5 4 3 2
16 16 15 15 15 15 15 15 14 13 12 11 11 10 10 10 9 8 7 5 4 4 4 4 4 5 5 5 5 6 6 6 6 6 5 5 5 5 4 3 2 2
16 15 15 15 15 15 15 14 14 13 12 11 11 10 9 9 8 7 6 5 4 3 3 3 3 4 5 5 5 5 5 5 5 5 5 5 5 4 3 2 2 1
16 16 15 15 15 14 14 14 13 13 12 11 10 9 9 8 7 6 5 4 3 3 3 3 3 4 4 5 5 5 5 5 5 5 5 4 4 3 2 1 1 1
16 16 15 15 14 14 14 13 13 12 11 10 10 9 8 7 6 5 4 3 3 3 3 3 3 4 4 5 5 5 5 5 5 5 4 4 3 2 1 1 0 -0
15 15 15 14 14 13 13 13 12 12 11 10 9 9 8 6 5 4 3 3 3 2 2 3 3 4 4 5 5 5 5 5 5 4 4 3 2 1 1 0 0 -0
14 14 14 14 13 13 13 13 12 12 11 10 9 8 7 6 4 3 3 2 2 2 3 4 4 4 4 5 5 5 4 4 4 4 3 2 2 1 0 -0 -0 -0
13 13 13 13 13 12 12 12 12 12 11 10 8 7 6 5 3 2 2 2 3 3 3 4 4 4 4 4 4 4 4 4 4 3 3 2 1 0 -0 -1 -1 -1
12 12 12 12 12 12 12 12 11 11 10 8 7 6 5 3 2 2 2 2 2 3 3 3 4 4 4 4 4 4 4 4 3 2 2 1 0 -0 -1 -1 -1 -1
11 11 11 11 11 11 11 11 10 9 8 6 6 5 4 2 2 1 1 2 2 2 3 3 3 4 4 4 4 4 3 3 2 2 1 1 -0 -1 -1 -1 -1 -1
10 10 11 10 10 10 10 10 9 8 6 5 5 4 3 2 1 1 1 2 2 2 2 3 3 3 3 3 3 3 3 2 1 1 0 -0 -1 -2 -2 -2 -1 -1
10 10 10 10 9 9 9 8 7 6 5 4 3 2 2 1 1 0 1 1 2 2 2 2 3 3 3 3 2 2 1 1 0 -0 -1 -1 -2 -3 -2 -2 -2 -2
10 9 9 9 9 8 7 7 6 5 4 3 2 1 1 1 0 1 1 1 2 2 2 2 2 2 2 2 2 1 0 -0 -1 -1 -1 -2 -3 -3 -3 -2 -2 -3